* Astronomy

Members Login
Username 
 
Password 
    Remember Me  
Post Info TOPIC: Asteroid 2012 BB77


L

Posts: 131433
Date:
Asteroid 2012 BB77
Permalink  
 


Orbital elements:
2012 BB77                                                Earth MOID = 0.1255 AU
Epoch 2012 Mar. 14.0 TT = JDT 2456000.5                 MPC
M  39.10933              (2000.0)            P               Q
n   0.30423610     Peri.  232.50246     +0.84458789     -0.51823549
a   2.1894190      Node   157.71079     +0.52984465     +0.84513821
e   0.6845461      Incl.   20.77783     -0.07704510     +0.13104726
P   3.24           H   18.9           G   0.15           U   8

MPEC 2012 - B83



__________________
Page 1 of 1  sorted by
 
Quick Reply

Please log in to post quick replies.



Create your own FREE Forum
Report Abuse
Powered by ActiveBoard